FW4468 Weather Reports


time (UTC)temp
F
wind
direction
speed
knots
gust
knots
rain 1hr
in
rain 24hr
in
rain mn
in
humidity
%
barometer
mb
20260906140056 55 144 0.0 1.7 0.00 0.00 0.00 65 1015.3
20260906134547 55 170 0.0 1.7 0.00 0.00 0.00 66 1015.2
20260906133046 55 119 0.0 3.5 0.00 0.00 0.00 66 1015.1
20260906131559 54 180 0.9 6.1 0.00 0.00 0.00 67 1015.0
20260906130046 53 110 0.0 2.6 0.00 0.00 0.00 67 1015.0
20260906124544 52 154 0.0 1.7 0.00 0.00 0.00 68 1015.0
20260906123045 52 163 0.0 1.7 0.00 0.00 0.00 67 1015.2
20260906121541 52 159 0.0 0.9 0.00 0.00 0.00 67 1015.2
20260906120040 53 146 0.0 0.9 0.00 0.00 0.00 67 1015.3
20260906114540 53 144 0.0 0.9 0.00 0.00 0.00 67 1015.3
20260906113039 53 142 0.0 0.9 0.00 0.00 0.00 68 1015.4
20260906111535 53 142 0.0 0.9 0.00 0.00 0.00 67 1015.4
20260906110034 53 140 0.0 0.9 0.00 0.00 0.00 67 1015.4
20260906104533 54 140 0.0 0.9 0.00 0.00 0.00 67 1015.3
20260906103031 54 140 0.0 2.6 0.00 0.00 0.00 66 1015.3
20260906101531 55 121 0.0 0.9 0.00 0.00 0.00 66 1015.4
20260906100029 55 176 0.0 1.7 0.00 0.00 0.00 66 1015.3
20260906094529 55 256 0.0 2.6 0.00 0.00 0.00 66 1015.3
20260906093037 55 81 0.0 2.6 0.00 0.00 0.00 66 1015.2
20260906091526 55 123 0.0 2.6 0.00 0.00 0.00 66 1015.3
20260906090026 55 151 0.0 7.0 0.00 0.00 0.00 66 1015.4
20260906084524 55 55 0.0 3.5 0.00 0.00 0.00 65 1015.5
20260906083024 55 138 0.0 2.6 0.00 0.00 0.00 66 1015.6
20260906081526 54 157 0.0 1.7 0.00 0.00 0.00 67 1015.6
20260906080020 54 162 0.0 1.7 0.00 0.00 0.00 67 1015.6
20260906074520 54 162 0.0 0.9 0.00 0.00 0.00 67 1015.7
20260906073016 55 165 0.0 1.7 0.00 0.00 0.00 66 1015.7
20260906071513 55 159 0.0 0.0 0.00 0.00 0.00 65 1015.8
20260906070010 56 159 0.0 0.9 0.00 0.00 0.00 64 1015.9
20260906064514 57 159 0.0 0.9 0.00 0.00 0.00 63 1016.1
20260906063008 57 159 0.0 2.6 0.00 0.00 0.00 62 1015.9
20260906061508 57 238 0.0 1.7 0.00 0.00 0.00 62 1015.9
20260906060013 58 257 0.0 0.9 0.00 0.00 0.00 61 1016.0
20260906054610 58 262 0.0 0.9 0.00 0.00 0.00 61 1016.1
20260906053015 58 256 0.0 0.9 0.00 0.00 0.00 61 1016.1
20260906051505 59 257 0.0 1.7 0.00 0.00 0.00 60 1016.1
20260906050005 59 360 0.0 0.0 0.00 0.00 0.00 59 1016.1
20260906044506 60 281 0.0 1.7 0.00 0.00 0.00 58 1016.1
20260906043004 60 310 0.0 1.7 0.00 0.00 0.00 57 1016.3
20260906041511 61 271 0.0 1.7 0.00 0.00 0.00 55 1016.4
20260906040004 61 140 0.0 1.7 0.00 0.00 0.00 54 1016.5
20260906034504 62 103 0.0 1.7 0.00 0.00 0.00 53 1016.6
20260906033003 63 80 0.0 2.6 0.00 0.00 0.00 51 1016.5
20260906031502 63 91 0.0 0.9 0.00 0.00 0.00 50 1016.4
20260906030002 63 136 0.0 1.7 0.00 0.00 0.00 50 1016.2
20260906024501 63 22 0.0 0.0 0.00 0.00 0.00 50 1016.2
20260906023001 64 22 0.0 0.0 0.00 0.00 0.00 48 1016.1
20260906021503 66 22 0.0 0.0 0.00 0.00 0.00 45 1016.1
20260906020101 67 22 0.0 0.9 0.00 0.00 0.00 41 1016.1
20260906020001 67 22 0.0 0.9 0.00 0.00 0.00 41 1016.0
20260906014611 67 22 0.0 1.7 0.00 0.00 0.00 40 1016.0
20260906013100 68 14 0.9 2.6 0.00 0.00 0.00 39 1016.0
20260906011613 69 140 0.0 2.6 0.00 0.00 0.00 38 1015.9
20260906010058 69 172 0.0 2.6 0.00 0.00 0.00 37 1015.7
20260906004557 70 180 1.7 4.3 0.00 0.00 0.00 35 1015.7
20260906003056 70 169 0.9 4.3 0.00 0.00 0.00 35 1015.6
20260906001600 70 340 0.9 3.5 0.00 0.00 0.00 36 1015.6
20260906000054 71 100 0.0 4.3 0.00 0.00 0.00 37 1015.5
20260905234553 71 109 0.9 2.6 0.00 0.00 0.00 39 1015.6
20260905233108 70 63 0.9 3.5 0.00 0.00 0.00 40 1015.7
20260905231555 72 131 0.9 3.5 0.00 0.00 0.00 38 1015.8
20260905230051 73 140 1.7 3.5 0.00 0.00 0.00 34 1015.9
20260905224608 75 145 0.9 6.1 0.00 0.00 0.00 35 1015.8
20260905223053 75 68 0.0 3.5 0.00 0.00 0.00 37 1015.8
20260905221546 73 43 1.7 4.3 0.00 0.00 0.00 36 1015.8
20260905220049 73 240 1.7 6.1 0.00 0.00 0.00 37 1015.9
20260905214544 74 186 1.7 6.1 0.00 0.00 0.00 39 1016.0
20260905213043 74 196 0.9 3.5 0.00 0.00 0.00 37 1016.1
20260905211539 74 164 0.0 4.3 0.00 0.00 0.00 41 1016.1
20260905210036 72 178 1.7 7.0 0.00 0.00 0.00 44 1016.2
20260905204533 71 127 0.0 5.2 0.00 0.00 0.00 47 1016.2
20260905203031 70 257 2.6 7.0 0.00 0.00 0.00 48 1016.4
20260905201529 69 171 1.7 7.0 0.00 0.00 0.00 53 1016.6
20260905200027 69 181 0.9 6.1 0.00 0.00 0.00 56 1016.7
20260905194525 68 215 1.7 7.0 0.00 0.00 0.00 59 1016.8
20260905193023 68 260 1.7 6.1 0.00 0.00 0.00 59 1016.8
20260905191520 67 177 0.9 3.5 0.00 0.00 0.00 60 1016.9
20260905190017 66 155 0.9 4.3 0.00 0.00 0.00 62 1017.0
20260905184517 64 355 0.0 5.2 0.00 0.00 0.00 64 1017.1
20260905183012 64 165 0.9 2.6 0.00 0.00 0.00 65 1017.3
20260905181509 63 185 0.0 2.6 0.00 0.00 0.00 68 1017.4
20260905180004 62 62 0.0 3.5 0.00 0.00 0.00 69 1017.5
20260905174505 61 9 1.7 5.2 0.00 0.00 0.00 70 1017.5
20260905173059 60 227 0.0 2.6 0.00 0.00 0.00 73 1017.4
20260905171556 60 275 0.9 3.5 0.00 0.00 0.00 75 1017.5
20260905170055 58 60 0.0 2.6 0.00 0.00 0.00 75 1017.4
20260905164550 57 163 0.0 1.7 0.00 0.00 0.00 78 1017.3
20260905163046 56 344 0.0 1.7 0.00 0.00 0.00 80 1017.2
20260905161543 54 119 0.0 0.0 0.00 0.00 0.00 82 1017.2
20260905160042 54 131 0.0 0.0 0.00 0.00 0.00 82 1017.1
20260905154541 53 132 0.0 0.0 0.00 0.00 0.00 82 1017.1
20260905153040 52 132 0.0 0.0 0.00 0.00 0.00 82 1017.2
20260905151538 51 132 0.0 0.0 0.00 0.00 0.00 82 1017.0
20260905150038 50 132 0.0 0.0 0.00 0.00 0.00 81 1016.9
20260905144542 50 132 0.0 0.0 0.00 0.00 0.00 80 1016.9
20260905143035 49 132 0.0 0.0 0.00 0.00 0.00 80 1016.8
20260905141541 50 132 0.0 0.0 0.00 0.00 0.00 80 1016.7